Location: Unspecified
(0.0000°N, 0.0000°E)
Time: 21:04:11
(UTC+00:00)

A-11 Canister half - Visible Passes

Search period start: 19 February 2017 00:00
Search period end: 01 March 2017 00:00
Orbit: 1514 x 1686 km, 47.2° (Epoch: 18 February)

Date Brightness Start Highest point End Pass type
(mag) Time Alt. Az. Time Alt. Az. Time Alt. Az.
20 Feb 11.1 22:15:24 10° SSW 22:16:24 14° SSW 22:16:24 14° SSW visible
21 Feb 10.9 21:52:34 10° SSW 21:54:46 18° SSW 21:54:46 18° SSW visible
22 Feb 10.6 21:29:47 10° SSW 21:33:11 23° S 21:33:11 23° S visible
23 Feb 10.3 21:07:01 10° SSW 21:11:40 28° S 21:11:40 28° S visible
24 Feb 10.1 20:44:15 10° SSW 20:50:14 32° SSE 20:50:14 32° SSE visible
25 Feb 9.9 20:21:31 10° SSW 20:28:53 34° SSE 20:28:53 34° SSE visible
25 Feb 11.1 22:25:36 10° SW 22:27:06 16° WSW 22:27:06 16° WSW visible
26 Feb 9.8 19:58:48 10° S 20:07:31 32° SE 20:07:37 32° SE visible
26 Feb 10.7 22:02:32 10° SW 22:05:51 24° WSW 22:05:51 24° WSW visible
27 Feb 9.9 19:36:08 10° S 19:44:33 30° SE 19:46:26 28° ESE visible
27 Feb 10.2 21:39:31 10° SW 21:44:40 34° WSW 21:44:40 34° WSW visible
28 Feb 10.0 19:13:28 10° S 19:21:35 27° SE 19:25:21 22° E visible
28 Feb 9.7 21:16:30 10° SW 21:23:36 49° WSW 21:23:36 49° WSW visible
